Time,TemperatureF,DewpointF,PressureIn,WindDirection,WindDirectionDegrees,WindSpeedMPH,WindSpeedGustMPH,Humidity,HourlyPrecipIn,Conditions,Clouds,dailyrainin,SolarRadiationWatts/m^2,SoftwareType,DateUTC
2013-11-13 00:00:00,25.7,10.1,30.19,WNW,301,5.0,5.0,51,0.00,,CLR,0.00,0.00,VWS V14.01,2013-11-13 05:00:00,
2013-11-13 00:01:00,25.7,10.1,30.19,WNW,302,6.0,6.0,51,0.00,,CLR,0.00,0.00,VWS V14.01,2013-11-13 05:01:00,
2013-11-13 00:05:00,46.7,24.8,29.87,SSW,209,0.0,7.0,42,0.00,,-RA,0.00,0.00,VWS V14.01,2013-11-13 05:05:00,
2013-11-13 00:06:00,25.8,10.2,30.19,NW,305,0.0,1.0,51,0.00,,CLR,0.00,0.00,VWS V14.01,2013-11-13 05:06:00,
2013-11-13 00:10:00,46.5,24.7,29.87,SW,219,1.0,6.0,42,0.00,,-RA,0.00,0.00,VWS V14.01,2013-11-13 05:10:00,
2013-11-13 00:11:00,25.8,10.2,30.19,WNW,302,2.0,3.0,51,0.00,,CLR,0.00,0.00,VWS V14.01,2013-11-13 05:11:00,
2013-11-13 00:15:00,46.5,24.7,29.87,SSW,200,2.0,5.0,42,0.00,,-RA,0.00,0.00,VWS V14.01,2013-11-13 05:15:00,
2013-11-13 00:16:00,26.1,10.9,30.18,NW,319,1.0,7.0,52,0.00,,CLR,0.00,0.00,VWS V14.01,2013-11-13 05:16:00,
2013-11-13 00:20:00,46.4,24.6,29.87,SSW,199,0.0,5.0,42,0.00,,-RA,0.00,0.00,VWS V14.01,2013-11-13 05:20:00,
2013-11-13 00:21:00,26.0,10.4,30.18,West,275,1.0,7.0,51,0.00,,CLR,0.00,0.00,VWS V14.01,2013-11-13 05:21:00,
2013-11-13 00:25:00,46.4,24.6,29.87,SSW,205,3.0,6.0,42,0.00,,-RA,0.00,0.00,VWS V14.01,2013-11-13 05:25:00,
2013-11-13 00:26:00,26.0,10.4,30.18,NW,313,6.0,7.0,51,0.00,,CLR,0.00,0.00,VWS V14.01,2013-11-13 05:26:00,
2013-11-13 00:30:00,46.5,24.7,29.87,SSW,210,5.0,7.0,42,0.00,,-RA,0.00,0.00,VWS V14.01,2013-11-13 05:30:00,
2013-11-13 00:31:00,26.0,10.4,30.18,NW,313,0.0,3.0,51,0.00,,CLR,0.00,0.00,VWS V14.01,2013-11-13 05:31:00,
2013-11-13 00:35:00,46.5,24.7,29.87,SW,216,3.0,6.0,42,0.00,,-RA,0.00,0.00,VWS V14.01,2013-11-13 05:35:00,
2013-11-13 00:36:00,25.8,10.2,30.18,NW,313,0.0,0.0,51,0.00,,CLR,0.00,0.00,VWS V14.01,2013-11-13 05:36:00,
2013-11-13 00:40:00,46.5,24.7,29.87,South,184,0.0,3.0,42,0.00,,-RA,0.00,0.00,VWS V14.01,2013-11-13 05:40:00,
2013-11-13 00:41:00,25.7,10.1,30.18,NW,312,1.0,6.0,51,0.00,,CLR,0.00,0.00,VWS V14.01,2013-11-13 05:41:00,
2013-11-13 00:45:00,46.4,24.6,29.87,SSW,208,2.0,7.0,42,0.00,,-RA,0.00,0.00,VWS V14.01,2013-11-13 05:45:00,
2013-11-13 00:46:00,25.8,10.2,30.18,NNW,346,2.0,7.0,51,0.00,,CLR,0.00,0.00,VWS V14.01,2013-11-13 05:46:00,
2013-11-13 00:50:00,46.4,24.6,29.87,SW,216,0.0,7.0,42,0.00,,-RA,0.00,0.00,VWS V14.01,2013-11-13 05:50:00,
2013-11-13 00:51:00,25.7,10.1,30.18,NNW,346,0.0,0.0,51,0.00,,CLR,0.00,0.00,VWS V14.01,2013-11-13 05:51:00,
2013-11-13 00:55:00,46.4,25.1,29.87,SW,215,0.0,6.0,43,0.00,,-RA,0.00,0.00,VWS V14.01,2013-11-13 05:55:00,
2013-11-13 00:56:00,25.6,10.4,30.18,WNW,298,9.0,10.0,52,0.00,,CLR,0.00,0.00,VWS V14.01,2013-11-13 05:56:00,
2013-11-13 01:00:00,46.2,25.0,29.86,SSW,208,1.0,6.0,43,0.00,,-RA,0.00,0.00,VWS V14.01,2013-11-13 06:00:00,
2013-11-13 01:01:00,25.7,10.1,30.18,NNW,343,3.0,7.0,51,0.00,,CLR,0.00,0.00,VWS V14.01,2013-11-13 06:01:00,
2013-11-13 01:05:00,46.2,25.0,29.86,SSW,208,0.0,3.0,43,0.00,,-RA,0.00,0.00,VWS V14.01,2013-11-13 06:05:00,
2013-11-13 01:06:00,25.7,10.1,30.18,NW,313,3.0,3.0,51,0.00,,CLR,0.00,0.00,VWS V14.01,2013-11-13 06:06:00,
2013-11-13 01:10:00,46.2,25.0,29.86,SSW,209,0.0,3.0,43,0.00,,-RA,0.00,0.00,VWS V14.01,2013-11-13 06:10:00,
2013-11-13 01:11:00,25.6,10.0,30.18,NW,318,0.0,5.0,51,0.00,,CLR,0.00,0.00,VWS V14.01,2013-11-13 06:11:00,
2013-11-13 01:15:00,46.1,24.9,29.86,SSW,209,1.0,1.0,43,0.00,,-RA,0.00,0.00,VWS V14.01,2013-11-13 06:15:00,
2013-11-13 01:16:00,25.6,10.0,30.18,NW,312,0.0,4.0,51,0.00,,CLR,0.00,0.00,VWS V14.01,2013-11-13 06:16:00,
2013-11-13 01:20:00,46.1,25.4,29.86,SSW,209,0.0,2.0,44,0.00,,-RA,0.00,0.00,VWS V14.01,2013-11-13 06:20:00,
2013-11-13 01:21:00,25.6,10.0,30.18,NW,325,0.0,0.0,51,0.00,,CLR,0.00,0.00,VWS V14.01,2013-11-13 06:21:00,
2013-11-13 01:25:00,46.1,24.9,29.86,WSW,240,3.0,6.0,43,0.00,,-RA,0.00,0.00,VWS V14.01,2013-11-13 06:25:00,
2013-11-13 01:26:00,25.7,9.6,30.18,NW,325,6.0,7.0,50,0.00,,CLR,0.00,0.00,VWS V14.01,2013-11-13 06:26:00,
2013-11-13 01:30:00,46.2,25.0,29.86,SW,233,0.0,4.0,43,0.00,,-RA,0.00,0.00,VWS V14.01,2013-11-13 06:30:00,
2013-11-13 01:31:00,25.7,9.6,30.18,NW,322,0.0,0.0,50,0.00,,CLR,0.00,0.00,VWS V14.01,2013-11-13 06:31:00,
2013-11-13 01:35:00,46.4,25.1,29.86,WSW,237,4.0,5.0,43,0.00,,-RA,0.00,0.00,VWS V14.01,2013-11-13 06:35:00,
2013-11-13 01:36:00,25.6,9.6,30.18,NW,311,1.0,6.0,50,0.00,,CLR,0.00,0.00,VWS V14.01,2013-11-13 06:36:00,
2013-11-13 01:40:00,46.4,24.6,29.86,WSW,237,4.0,5.0,42,0.00,,-RA,0.00,0.00,VWS V14.01,2013-11-13 06:40:00,
2013-11-13 01:41:00,25.4,9.4,30.18,WNW,285,2.0,3.0,50,0.00,,CLR,0.00,0.00,VWS V14.01,2013-11-13 06:41:00,
2013-11-13 01:45:00,46.5,24.7,29.85,SW,217,0.0,8.0,42,0.00,,-RA,0.00,0.00,VWS V14.01,2013-11-13 06:45:00,
2013-11-13 01:46:00,25.3,9.3,30.18,WNW,284,0.0,2.0,50,0.00,,CLR,0.00,0.00,VWS V14.01,2013-11-13 06:46:00,
2013-11-13 01:50:00,46.7,24.3,29.85,SW,226,5.0,9.0,41,0.00,,-RA,0.00,0.00,VWS V14.01,2013-11-13 06:50:00,
2013-11-13 01:51:00,25.3,9.3,30.18,WNW,292,2.0,7.0,50,0.00,,CLR,0.00,0.00,VWS V14.01,2013-11-13 06:51:00,
2013-11-13 01:55:00,46.7,24.3,29.85,WSW,239,6.0,9.0,41,0.00,,-RA,0.00,0.00,VWS V14.01,2013-11-13 06:55:00,
2013-11-13 01:56:00,25.3,9.3,30.18,NW,308,5.0,6.0,50,0.00,,CLR,0.00,0.00,VWS V14.01,2013-11-13 06:56:00,
2013-11-13 02:00:00,46.8,23.8,29.85,SW,222,4.0,7.0,40,0.00,,-RA,0.00,0.00,VWS V14.01,2013-11-13 07:00:00,
2013-11-13 02:01:00,25.3,9.3,30.18,NW,305,0.0,6.0,50,0.00,,CLR,0.00,0.00,VWS V14.01,2013-11-13 07:01:00,
2013-11-13 02:05:00,46.8,23.8,29.85,WSW,248,1.0,10.0,40,0.00,,-RA,0.00,0.00,VWS V14.01,2013-11-13 07:05:00,
2013-11-13 02:06:00,25.4,10.2,30.18,NNW,344,0.0,5.0,52,0.00,,CLR,0.00,0.00,VWS V14.01,2013-11-13 07:06:00,
2013-11-13 02:10:00,46.7,24.3,29.85,WSW,241,2.0,5.0,41,0.00,,-RA,0.00,0.00,VWS V14.01,2013-11-13 07:10:00,
2013-11-13 02:11:00,25.6,9.6,30.18,NNW,346,2.0,4.0,50,0.00,,CLR,0.00,0.00,VWS V14.01,2013-11-13 07:11:00,
2013-11-13 02:15:00,46.7,23.7,29.86,WSW,243,2.0,7.0,40,0.00,,-RA,0.00,0.00,VWS V14.01,2013-11-13 07:15:00,
2013-11-13 02:16:00,25.4,9.4,30.18,NW,308,2.0,3.0,50,0.00,,CLR,0.00,0.00,VWS V14.01,2013-11-13 07:16:00,
2013-11-13 02:20:00,46.7,23.1,29.86,SSW,200,6.0,10.0,39,0.00,,-RA,0.00,0.00,VWS V14.01,2013-11-13 07:20:00,
2013-11-13 02:21:00,25.4,9.4,30.18,NW,322,0.0,3.0,50,0.00,,CLR,0.00,0.00,VWS V14.01,2013-11-13 07:21:00,
2013-11-13 02:25:00,46.8,23.8,29.86,WSW,244,0.0,7.0,40,0.00,,-RA,0.00,0.00,VWS V14.01,2013-11-13 07:25:00,
2013-11-13 02:26:00,25.3,9.3,30.18,NW,306,0.0,1.0,50,0.00,,CLR,0.00,0.00,VWS V14.01,2013-11-13 07:26:00,
2013-11-13 02:30:00,46.7,23.1,29.85,WSW,248,0.0,6.0,39,0.00,,-RA,0.00,0.00,VWS V14.01,2013-11-13 07:30:00,
2013-11-13 02:31:00,25.3,9.3,30.18,NNW,343,0.0,3.0,50,0.00,,CLR,0.00,0.00,VWS V14.01,2013-11-13 07:31:00,
2013-11-13 02:35:00,46.7,22.5,29.85,WSW,258,7.0,12.0,38,0.00,,-RA,0.00,0.00,VWS V14.01,2013-11-13 07:35:00,
2013-11-13 02:36:00,25.3,9.7,30.18,North,3,2.0,3.0,51,0.00,,CLR,0.00,0.00,VWS V14.01,2013-11-13 07:36:00,
2013-11-13 02:40:00,46.8,22.5,29.85,West,278,2.0,7.0,38,0.00,,-RA,0.00,0.00,VWS V14.01,2013-11-13 07:40:00,
2013-11-13 02:41:00,25.3,9.7,30.18,North,3,0.0,6.0,51,0.00,,CLR,0.00,0.00,VWS V14.01,2013-11-13 07:41:00,
2013-11-13 02:45:00,46.8,22.5,29.86,West,281,4.0,12.0,38,0.00,,-RA,0.00,0.00,VWS V14.01,2013-11-13 07:45:00,
2013-11-13 02:46:00,25.3,9.7,30.18,NNW,346,2.0,4.0,51,0.00,,CLR,0.00,0.00,VWS V14.01,2013-11-13 07:46:00,
2013-11-13 02:50:00,46.8,22.5,29.86,NW,304,7.0,12.0,38,0.00,,-RA,0.00,0.00,VWS V14.01,2013-11-13 07:50:00,
2013-11-13 02:51:00,25.1,9.1,30.18,WNW,295,0.0,5.0,50,0.00,,CLR,0.00,0.00,VWS V14.01,2013-11-13 07:51:00,
2013-11-13 02:55:00,46.7,23.1,29.86,West,272,5.0,10.0,39,0.00,,-RA,0.00,0.00,VWS V14.01,2013-11-13 07:55:00,
2013-11-13 02:56:00,24.8,8.8,30.18,North,349,7.0,7.0,50,0.00,,CLR,0.00,0.00,VWS V14.01,2013-11-13 07:56:00,
2013-11-13 03:05:00,24.8,9.2,30.17,NNW,336,3.0,3.0,51,0.00,,CLR,0.00,0.00,VWS V14.01,2013-11-13 08:05:00,
2013-11-13 03:10:00,25.0,9.4,30.17,NW,316,5.0,6.0,51,0.00,,CLR,0.00,0.00,VWS V14.01,2013-11-13 08:10:00,
2013-11-13 03:15:00,25.0,9.9,30.18,NNW,340,5.0,9.0,52,0.00,,CLR,0.00,0.00,VWS V14.01,2013-11-13 08:15:00,
2013-11-13 03:20:00,25.0,9.9,30.18,NW,326,2.0,5.0,52,0.00,,CLR,0.00,0.00,VWS V14.01,2013-11-13 08:20:00,
2013-11-13 03:25:00,25.0,9.9,30.18,NW,326,2.0,6.0,52,0.00,,CLR,0.00,0.00,VWS V14.01,2013-11-13 08:25:00,
2013-11-13 03:30:00,24.8,9.7,30.18,NW,326,2.0,6.0,52,0.00,,CLR,0.00,0.00,VWS V14.01,2013-11-13 08:30:00,
2013-11-13 03:35:00,24.5,9.4,30.18,NNW,344,5.0,5.0,52,0.00,,CLR,0.00,0.00,VWS V14.01,2013-11-13 08:35:00,
2013-11-13 03:40:00,24.5,9.4,30.18,NNW,330,0.0,7.0,52,0.00,,CLR,0.00,0.00,VWS V14.01,2013-11-13 08:40:00,
2013-11-13 03:45:00,24.5,9.4,30.18,NNW,336,5.0,8.0,52,0.00,,CLR,0.00,0.00,VWS V14.01,2013-11-13 08:45:00,
2013-11-13 03:50:00,24.7,10.0,30.18,NW,306,6.0,6.0,53,0.00,,CLR,0.00,0.00,VWS V14.01,2013-11-13 08:50:00,
2013-11-13 03:55:00,24.5,9.8,30.18,North,354,3.0,7.0,53,0.00,,CLR,0.00,0.00,VWS V14.01,2013-11-13 08:55:00,
2013-11-13 04:00:00,24.7,10.0,30.19,NW,320,1.0,8.0,53,0.00,,CLR,0.00,0.00,VWS V14.01,2013-11-13 09:00:00,
2013-11-13 04:05:00,24.7,10.0,30.19,NNW,340,3.0,6.0,53,0.00,,FEW044,0.00,0.00,VWS V14.01,2013-11-13 09:05:00,
2013-11-13 04:10:00,24.7,10.0,30.19,NNW,344,5.0,12.0,53,0.00,,FEW044,0.00,0.00,VWS V14.01,2013-11-13 09:10:00,
2013-11-13 04:15:00,24.8,10.1,30.19,North,353,5.0,8.0,53,0.00,,FEW044,0.00,0.00,VWS V14.01,2013-11-13 09:15:00,
2013-11-13 04:20:00,24.7,10.0,30.19,NW,312,4.0,7.0,53,0.00,,FEW044,0.00,0.00,VWS V14.01,2013-11-13 09:20:00,
2013-11-13 04:25:00,24.7,10.4,30.19,NNW,344,5.0,9.0,54,0.00,,FEW044,0.00,0.00,VWS V14.01,2013-11-13 09:25:00,
2013-11-13 04:30:00,24.7,10.9,30.19,North,349,2.0,3.0,55,0.00,,FEW044,0.00,0.00,VWS V14.01,2013-11-13 09:30:00,
2013-11-13 04:35:00,24.5,10.2,30.19,NW,316,6.0,6.0,54,0.00,,FEW044,0.00,0.00,VWS V14.01,2013-11-13 09:35:00,
2013-11-13 04:40:00,24.4,10.1,30.19,North,354,6.0,7.0,54,0.00,,FEW044,0.00,0.00,VWS V14.01,2013-11-13 09:40:00,
2013-11-13 04:45:00,24.4,10.1,30.19,NNW,339,2.0,8.0,54,0.00,,FEW044,0.00,0.00,VWS V14.01,2013-11-13 09:45:00,
2013-11-13 04:50:00,24.5,10.7,30.19,NNW,339,2.0,4.0,55,0.00,,FEW044,0.00,0.00,VWS V14.01,2013-11-13 09:50:00,
2013-11-13 04:55:00,24.5,10.7,30.19,North,357,6.0,10.0,55,0.00,,FEW044,0.00,0.00,VWS V14.01,2013-11-13 09:55:00,
2013-11-13 05:00:00,24.7,10.9,30.19,North,0,3.0,3.0,55,0.00,,FEW044,0.00,0.00,VWS V14.01,2013-11-13 10:00:00,
2013-11-13 05:05:00,24.4,10.1,30.19,North,0,1.0,3.0,54,0.00,,CLR,0.00,0.00,VWS V14.01,2013-11-13 10:05:00,
2013-11-13 05:10:00,24.4,10.1,30.19,NNW,342,0.0,6.0,54,0.00,,CLR,0.00,0.00,VWS V14.01,2013-11-13 10:10:00,
2013-11-13 05:15:00,24.2,10.0,30.19,NNW,343,0.0,1.0,54,0.00,,CLR,0.00,0.00,VWS V14.01,2013-11-13 10:15:00,
2013-11-13 05:20:00,24.4,10.6,30.19,NW,311,2.0,6.0,55,0.00,,CLR,0.00,0.00,VWS V14.01,2013-11-13 10:20:00,
2013-11-13 05:25:00,24.4,10.6,30.19,NW,319,1.0,6.0,55,0.00,,CLR,0.00,0.00,VWS V14.01,2013-11-13 10:25:00,
2013-11-13 05:30:00,24.4,10.6,30.19,NW,306,0.0,2.0,55,0.00,,CLR,0.00,0.00,VWS V14.01,2013-11-13 10:30:00,
2013-11-13 05:35:00,24.2,10.4,30.19,NNE,18,6.0,6.0,55,0.00,,CLR,0.00,0.00,VWS V14.01,2013-11-13 10:35:00,
2013-11-13 05:40:00,24.4,10.6,30.19,NNW,333,3.0,5.0,55,0.00,,CLR,0.00,0.00,VWS V14.01,2013-11-13 10:40:00,
2013-11-13 05:45:00,24.4,10.6,30.20,NNW,332,0.0,6.0,55,0.00,,CLR,0.00,0.00,VWS V14.01,2013-11-13 10:45:00,
2013-11-13 05:50:00,24.5,11.1,30.20,NNW,337,0.0,5.0,56,0.00,,CLR,0.00,0.00,VWS V14.01,2013-11-13 10:50:00,
2013-11-13 05:55:00,24.5,11.1,30.20,North,4,7.0,7.0,56,0.00,,CLR,0.00,0.00,VWS V14.01,2013-11-13 10:55:00,
2013-11-13 06:00:00,24.7,11.6,30.20,North,4,0.0,1.0,57,0.00,,CLR,0.00,0.00,VWS V14.01,2013-11-13 11:00:00,
2013-11-13 06:05:00,24.5,11.1,30.20,North,0,0.0,0.0,56,0.00,,CLR,0.00,0.00,VWS V14.01,2013-11-13 11:05:00,
2013-11-13 06:10:00,24.4,11.4,30.20,North,6,4.0,5.0,57,0.00,,CLR,0.00,0.00,VWS V14.01,2013-11-13 11:10:00,
2013-11-13 06:15:00,24.5,11.5,30.21,North,11,0.0,2.0,57,0.00,,CLR,0.00,0.00,VWS V14.01,2013-11-13 11:15:00,
2013-11-13 06:20:00,24.2,10.8,30.21,North,354,4.0,7.0,56,0.00,,CLR,0.00,0.00,VWS V14.01,2013-11-13 11:20:00,
2013-11-13 06:25:00,24.2,10.8,30.21,NW,325,3.0,10.0,56,0.00,,CLR,0.00,0.00,VWS V14.01,2013-11-13 11:25:00,
2013-11-13 06:30:00,24.1,10.3,30.21,NNW,329,2.0,10.0,55,0.00,,CLR,0.00,0.00,VWS V14.01,2013-11-13 11:30:00,
2013-11-13 06:35:00,24.2,10.8,30.21,North,357,10.0,13.0,56,0.00,,CLR,0.00,0.00,VWS V14.01,2013-11-13 11:35:00,
2013-11-13 06:40:00,24.5,11.5,30.21,NNW,346,1.0,10.0,57,0.00,,CLR,0.00,0.00,VWS V14.01,2013-11-13 11:40:00,
2013-11-13 06:45:00,24.4,10.6,30.22,NNW,333,4.0,12.0,55,0.00,,CLR,0.00,0.00,VWS V14.01,2013-11-13 11:45:00,
2013-11-13 06:50:00,24.4,10.6,30.22,North,0,7.0,12.0,55,0.00,,CLR,0.00,0.00,VWS V14.01,2013-11-13 11:50:00,
2013-11-13 06:55:00,24.4,10.6,30.22,WNW,288,5.0,10.0,55,0.00,,CLR,0.00,0.00,VWS V14.01,2013-11-13 11:55:00,
2013-11-13 07:00:00,24.2,10.0,30.22,North,0,8.0,10.0,54,0.00,,CLR,0.00,5.00,VWS V14.01,2013-11-13 12:00:00,
2013-11-13 07:05:00,24.4,10.6,30.22,North,6,9.0,14.0,55,0.00,,CLR,0.00,7.00,VWS V14.01,2013-11-13 12:05:00,
2013-11-13 07:10:00,24.4,9.7,30.22,North,0,11.0,16.0,53,0.00,,CLR,0.00,12.00,VWS V14.01,2013-11-13 12:10:00,
2013-11-13 07:15:00,24.7,10.0,30.23,North,359,10.0,12.0,53,0.00,,CLR,0.00,19.00,VWS V14.01,2013-11-13 12:15:00,
2013-11-13 07:20:00,24.7,9.6,30.23,North,1,11.0,13.0,52,0.00,,CLR,0.00,26.00,VWS V14.01,2013-11-13 12:20:00,
2013-11-13 07:25:00,25.0,9.4,30.23,NNE,16,8.0,14.0,51,0.00,,CLR,0.00,37.00,VWS V14.01,2013-11-13 12:25:00,
2013-11-13 07:30:00,24.8,8.4,30.24,North,356,8.0,16.0,49,0.00,,CLR,0.00,55.00,VWS V14.01,2013-11-13 12:30:00,
2013-11-13 07:35:00,24.8,8.4,30.24,North,352,10.0,14.0,49,0.00,,CLR,0.00,55.00,VWS V14.01,2013-11-13 12:35:00,
2013-11-13 07:40:00,24.8,7.0,30.24,North,0,11.0,22.0,46,0.00,,CLR,0.00,106.00,VWS V14.01,2013-11-13 12:40:00,
2013-11-13 07:45:00,25.0,6.7,30.24,North,357,7.0,17.0,45,0.00,,CLR,0.00,120.00,VWS V14.01,2013-11-13 12:45:00,
2013-11-13 07:50:00,25.3,7.9,30.24,North,350,14.0,16.0,47,0.00,,CLR,0.00,134.00,VWS V14.01,2013-11-13 12:50:00,
2013-11-13 07:55:00,25.3,6.9,30.24,NNW,343,8.0,17.0,45,0.00,,CLR,0.00,146.00,VWS V14.01,2013-11-13 12:55:00,
2013-11-13 08:00:00,25.3,6.9,30.24,North,0,11.0,11.0,45,0.00,,CLR,0.00,160.00,VWS V14.01,2013-11-13 13:00:00,
2013-11-13 08:05:00,25.4,7.0,30.24,NNW,346,7.0,20.0,45,0.00,,FEW037,0.00,171.00,VWS V14.01,2013-11-13 13:05:00,
2013-11-13 08:10:00,25.6,6.7,30.24,NW,320,8.0,20.0,44,0.00,,FEW037,0.00,183.00,VWS V14.01,2013-11-13 13:10:00,
2013-11-13 08:15:00,25.6,6.2,30.25,NW,315,10.0,16.0,43,0.00,,FEW037,0.00,195.00,VWS V14.01,2013-11-13 13:15:00,
2013-11-13 08:20:00,25.6,6.7,30.25,NNW,344,6.0,17.0,44,0.00,,FEW037,0.00,209.00,VWS V14.01,2013-11-13 13:20:00,
2013-11-13 08:25:00,25.4,5.5,30.25,North,356,11.0,20.0,42,0.00,,FEW037,0.00,222.00,VWS V14.01,2013-11-13 13:25:00,
2013-11-13 08:30:00,25.4,6.0,30.25,North,0,17.0,18.0,43,0.00,,FEW037,0.00,236.00,VWS V14.01,2013-11-13 13:30:00,
2013-11-13 08:35:00,25.6,6.2,30.25,NNW,339,7.0,17.0,43,0.00,,FEW037,0.00,248.00,VWS V14.01,2013-11-13 13:35:00,
2013-11-13 08:40:00,25.7,5.8,30.25,NW,326,4.0,16.0,42,0.00,,FEW037,0.00,259.00,VWS V14.01,2013-11-13 13:40:00,
2013-11-13 08:45:00,25.8,5.9,30.25,North,3,12.0,12.0,42,0.00,,FEW037,0.00,271.00,VWS V14.01,2013-11-13 13:45:00,
2013-11-13 08:50:00,26.0,6.1,30.25,North,357,7.0,22.0,42,0.00,,FEW037,0.00,283.00,VWS V14.01,2013-11-13 13:50:00,
2013-11-13 08:55:00,25.7,4.7,30.25,North,8,10.0,14.0,40,0.00,,FEW037,0.00,299.00,VWS V14.01,2013-11-13 13:55:00,
2013-11-13 09:00:00,25.8,5.4,30.25,North,353,10.0,16.0,41,0.00,,FEW037,0.00,310.00,VWS V14.01,2013-11-13 14:00:00,
2013-11-13 09:05:00,25.8,4.8,30.25,NW,311,3.0,20.0,40,0.00,,CLR,0.00,320.00,VWS V14.01,2013-11-13 14:05:00,
2013-11-13 09:10:00,26.0,4.4,30.25,NNW,329,7.0,16.0,39,0.00,,CLR,0.00,331.00,VWS V14.01,2013-11-13 14:10:00,
2013-11-13 09:15:00,26.0,3.9,30.25,North,357,16.0,21.0,38,0.00,,CLR,0.00,345.00,VWS V14.01,2013-11-13 14:15:00,
2013-11-13 09:20:00,26.1,4.5,30.25,North,357,7.0,14.0,39,0.00,,CLR,0.00,352.00,VWS V14.01,2013-11-13 14:20:00,
2013-11-13 09:25:00,26.6,4.4,30.25,WSW,239,7.0,13.0,38,0.00,,CLR,0.00,362.00,VWS V14.01,2013-11-13 14:25:00,
2013-11-13 09:30:00,26.7,3.9,30.25,NNW,335,7.0,14.0,37,0.00,,CLR,0.00,373.00,VWS V14.01,2013-11-13 14:30:00,
2013-11-13 09:35:00,26.7,3.9,30.26,North,0,11.0,22.0,37,0.00,,CLR,0.00,384.00,VWS V14.01,2013-11-13 14:35:00,
2013-11-13 09:40:00,31.9,16.3,30.02,NNW,344,5.0,12.0,52,0.00,,-RA,0.00,128.00,VWS V14.01,2013-11-13 14:40:00,
2013-11-13 09:43:00,26.6,4.4,30.26,North,3,10.0,10.0,38,0.00,,CLR,0.00,399.00,VWS V14.01,2013-11-13 14:43:00,
2013-11-13 09:45:00,31.9,16.3,30.04,NNW,340,2.0,11.0,52,0.00,,-RA,0.00,118.00,VWS V14.01,2013-11-13 14:45:00,
2013-11-13 09:48:00,27.0,5.3,30.26,North,4,8.0,16.0,39,0.00,,CLR,0.00,408.00,VWS V14.01,2013-11-13 14:48:00,
2013-11-13 09:50:00,32.1,16.5,30.04,North,354,9.0,14.0,52,0.00,,-RA,0.00,107.00,VWS V14.01,2013-11-13 14:50:00,
2013-11-13 09:53:00,27.2,3.8,30.26,NW,326,11.0,20.0,36,0.00,,CLR,0.00,417.00,VWS V14.01,2013-11-13 14:53:00,
2013-11-13 09:55:00,32.1,15.6,30.04,NNW,332,7.0,13.0,50,0.00,,-RA,0.00,99.00,VWS V14.01,2013-11-13 14:55:00,
2013-11-13 09:58:00,27.5,3.5,30.26,NW,323,17.0,17.0,35,0.00,,CLR,0.00,426.00,VWS V14.01,2013-11-13 14:58:00,
2013-11-13 10:00:00,31.9,15.4,30.04,North,0,12.0,16.0,50,0.00,,-RA,0.00,128.00,VWS V14.01,2013-11-13 15:00:00,
2013-11-13 10:03:00,27.5,4.1,30.26,NNW,347,10.0,14.0,36,0.00,,CLR,0.00,435.00,VWS V14.01,2013-11-13 15:03:00,
2013-11-13 10:05:00,32.1,15.6,30.04,NW,304,10.0,16.0,50,0.00,,-RA,0.00,144.00,VWS V14.01,2013-11-13 15:05:00,
2013-11-13 10:08:00,27.5,4.7,30.26,NNW,347,7.0,17.0,37,0.00,,CLR,0.00,440.00,VWS V14.01,2013-11-13 15:08:00,
2013-11-13 10:10:00,32.1,15.6,30.04,North,356,8.0,12.0,50,0.00,,-RA,0.00,181.00,VWS V14.01,2013-11-13 15:10:00,
2013-11-13 10:13:00,27.9,5.6,30.26,North,0,6.0,12.0,38,0.00,,CLR,0.00,449.00,VWS V14.01,2013-11-13 15:13:00,
2013-11-13 10:15:00,32.2,15.2,30.05,NNW,336,8.0,18.0,49,0.00,,-RA,0.00,185.00,VWS V14.01,2013-11-13 15:15:00,
2013-11-13 10:18:00,28.2,4.7,30.25,North,0,9.0,20.0,36,0.00,,CLR,0.00,456.00,VWS V14.01,2013-11-13 15:18:00,
2013-11-13 10:20:00,32.2,14.7,30.05,NNW,347,10.0,16.0,48,0.00,,-RA,0.00,172.00,VWS V14.01,2013-11-13 15:20:00,
2013-11-13 10:23:00,28.1,4.0,30.25,NW,316,16.0,20.0,35,0.00,,CLR,0.00,465.00,VWS V14.01,2013-11-13 15:23:00,
2013-11-13 10:25:00,32.2,14.2,30.05,NNW,337,7.0,17.0,47,0.00,,-RA,0.00,167.00,VWS V14.01,2013-11-13 15:25:00,
2013-11-13 10:28:00,28.1,4.0,30.25,NNW,340,12.0,14.0,35,0.00,,CLR,0.00,468.00,VWS V14.01,2013-11-13 15:28:00,
2013-11-13 10:30:00,32.2,13.8,30.05,WNW,292,8.0,12.0,46,0.00,,-RA,0.00,187.00,VWS V14.01,2013-11-13 15:30:00,
2013-11-13 10:33:00,28.4,4.2,30.25,NW,313,3.0,11.0,35,0.00,,CLR,0.00,473.00,VWS V14.01,2013-11-13 15:33:00,
2013-11-13 10:35:00,32.1,13.7,30.05,North,349,7.0,18.0,46,0.00,,-RA,0.00,164.00,VWS V14.01,2013-11-13 15:35:00,
2013-11-13 10:38:00,28.4,3.6,30.25,WNW,296,12.0,14.0,34,0.00,,CLR,0.00,480.00,VWS V14.01,2013-11-13 15:38:00,
2013-11-13 10:40:00,32.4,14.9,30.05,WNW,289,7.0,11.0,48,0.00,,-RA,0.00,151.00,VWS V14.01,2013-11-13 15:40:00,
2013-11-13 10:43:00,29.1,2.2,30.25,North,354,16.0,17.0,31,0.00,,CLR,0.00,486.00,VWS V14.01,2013-11-13 15:43:00,
2013-11-13 10:45:00,32.4,14.4,30.05,WNW,302,6.0,10.0,47,0.00,,-RA,0.00,127.00,VWS V14.01,2013-11-13 15:45:00,
2013-11-13 10:48:00,29.1,2.9,30.25,North,0,3.0,11.0,32,0.00,,CLR,0.00,491.00,VWS V14.01,2013-11-13 15:48:00,
2013-11-13 10:50:00,32.2,14.2,30.05,NNW,332,7.0,12.0,47,0.00,,-RA,0.00,143.00,VWS V14.01,2013-11-13 15:50:00,
2013-11-13 10:53:00,29.1,3.6,30.25,North,10,18.0,18.0,33,0.00,,CLR,0.00,496.00,VWS V14.01,2013-11-13 15:53:00,
2013-11-13 10:55:00,32.2,14.7,30.05,North,0,13.0,14.0,48,0.00,,-RA,0.00,148.00,VWS V14.01,2013-11-13 15:55:00,
2013-11-13 10:58:00,29.3,5.1,30.25,NW,318,6.0,18.0,35,0.00,,CLR,0.00,501.00,VWS V14.01,2013-11-13 15:58:00,
2013-11-13 11:00:00,32.1,14.6,30.06,North,357,8.0,20.0,48,0.00,,-RA,0.00,160.00,VWS V14.01,2013-11-13 16:00:00,
2013-11-13 11:03:00,29.3,2.4,30.24,North,7,9.0,18.0,31,0.00,,CLR,0.00,503.00,VWS V14.01,2013-11-13 16:03:00,
2013-11-13 11:05:00,31.9,13.0,30.06,North,0,13.0,18.0,45,0.00,,-RA,0.00,199.00,VWS V14.01,2013-11-13 16:05:00,
2013-11-13 11:08:00,29.4,2.5,30.24,North,4,10.0,12.0,31,0.00,,CLR,0.00,505.00,VWS V14.01,2013-11-13 16:08:00,
2013-11-13 11:10:00,31.9,12.5,30.06,North,359,11.0,17.0,44,0.00,,-RA,0.00,225.00,VWS V14.01,2013-11-13 16:10:00,
2013-11-13 11:13:00,29.5,0.4,30.24,North,4,10.0,11.0,28,0.00,,CLR,0.00,509.00,VWS V14.01,2013-11-13 16:13:00,
2013-11-13 11:15:00,31.9,12.5,30.06,NW,322,6.0,11.0,44,0.00,,-RA,0.00,223.00,VWS V14.01,2013-11-13 16:15:00,
2013-11-13 11:18:00,30.1,0.2,30.24,West,265,2.0,19.0,27,0.00,,CLR,0.00,514.00,VWS V14.01,2013-11-13 16:18:00,
2013-11-13 11:20:00,32.1,12.1,30.06,North,357,9.0,12.0,43,0.00,,-RA,0.00,223.00,VWS V14.01,2013-11-13 16:20:00,
2013-11-13 11:23:00,29.7,0.6,30.24,North,1,13.0,18.0,28,0.00,,CLR,0.00,517.00,VWS V14.01,2013-11-13 16:23:00,
2013-11-13 11:25:00,32.1,12.1,30.06,NNW,333,5.0,12.0,43,0.00,,-RA,0.00,204.00,VWS V14.01,2013-11-13 16:25:00,
2013-11-13 11:28:00,30.0,1.6,30.24,North,0,15.0,15.0,29,0.00,,CLR,0.00,517.00,VWS V14.01,2013-11-13 16:28:00,
2013-11-13 11:30:00,32.1,11.1,30.06,North,352,12.0,14.0,41,0.00,,-RA,0.00,215.00,VWS V14.01,2013-11-13 16:30:00,
2013-11-13 11:33:00,30.3,0.3,30.24,NNW,346,13.0,17.0,27,0.00,,CLR,0.00,517.00,VWS V14.01,2013-11-13 16:33:00,
2013-11-13 11:35:00,31.9,12.0,30.06,North,356,11.0,15.0,43,0.00,,-RA,0.00,220.00,VWS V14.01,2013-11-13 16:35:00,
2013-11-13 11:38:00,30.3,1.1,30.24,North,352,3.0,13.0,28,0.00,,CLR,0.00,517.00,VWS V14.01,2013-11-13 16:38:00,
2013-11-13 11:40:00,31.8,10.8,30.06,North,0,8.0,13.0,41,0.00,,-RA,0.00,216.00,VWS V14.01,2013-11-13 16:40:00,
2013-11-13 11:43:00,30.6,1.4,30.24,WNW,299,8.0,12.0,28,0.00,,CLR,0.00,521.00,VWS V14.01,2013-11-13 16:43:00,
2013-11-13 11:45:00,31.9,10.9,30.06,North,0,17.0,17.0,41,0.00,,-RA,0.00,204.00,VWS V14.01,2013-11-13 16:45:00,
2013-11-13 11:48:00,31.0,1.7,30.24,NNW,340,3.0,14.0,28,0.00,,CLR,0.00,519.00,VWS V14.01,2013-11-13 16:48:00,
2013-11-13 11:50:00,31.9,11.4,30.06,North,0,10.0,17.0,42,0.00,,-RA,0.00,206.00,VWS V14.01,2013-11-13 16:50:00,
2013-11-13 11:53:00,31.6,1.5,30.24,North,357,13.0,13.0,27,0.00,,CLR,0.00,517.00,VWS V14.01,2013-11-13 16:53:00,
2013-11-13 11:55:00,31.9,10.9,30.06,North,0,3.0,15.0,41,0.00,,-RA,0.00,190.00,VWS V14.01,2013-11-13 16:55:00,
2013-11-13 11:58:00,31.5,2.2,30.24,NW,326,4.0,11.0,28,0.00,,CLR,0.00,517.00,VWS V14.01,2013-11-13 16:58:00,
2013-11-13 12:00:00,31.9,10.9,30.06,North,0,7.0,8.0,41,0.00,,-RA,0.00,181.00,VWS V14.01,2013-11-13 17:00:00,
2013-11-13 12:03:00,31.3,1.2,30.23,North,354,18.0,22.0,27,0.00,,CLR,0.00,519.00,VWS V14.01,2013-11-13 17:03:00,
2013-11-13 12:05:00,31.8,9.7,30.06,North,0,7.0,12.0,39,0.00,,-RA,0.00,171.00,VWS V14.01,2013-11-13 17:05:00,
2013-11-13 12:08:00,31.3,2.0,30.23,North,0,8.0,19.0,28,0.00,,CLR,0.00,519.00,VWS V14.01,2013-11-13 17:08:00,
2013-11-13 12:10:00,31.8,10.2,30.06,NNW,339,11.0,12.0,40,0.00,,-RA,0.00,178.00,VWS V14.01,2013-11-13 17:10:00,
2013-11-13 12:13:00,31.6,0.7,30.23,North,356,6.0,13.0,26,0.00,,CLR,0.00,517.00,VWS V14.01,2013-11-13 17:13:00,
2013-11-13 12:15:00,31.8,9.1,30.05,North,356,13.0,18.0,38,0.00,,-RA,0.00,178.00,VWS V14.01,2013-11-13 17:15:00,
2013-11-13 12:18:00,32.1,2.7,30.22,NW,322,3.0,25.0,28,0.00,,CLR,0.00,514.00,VWS V14.01,2013-11-13 17:18:00,
2013-11-13 12:20:00,31.5,8.2,30.05,North,357,12.0,20.0,37,0.00,,-RA,0.00,183.00,VWS V14.01,2013-11-13 17:20:00,
2013-11-13 12:23:00,31.9,-0.8,30.22,North,0,16.0,18.0,24,0.00,,CLR,0.00,512.00,VWS V14.01,2013-11-13 17:23:00,
2013-11-13 12:25:00,31.6,8.3,30.05,North,350,11.0,19.0,37,0.00,,-RA,0.00,188.00,VWS V14.01,2013-11-13 17:25:00,
2013-11-13 12:28:00,32.2,0.3,30.22,North,0,11.0,12.0,25,0.00,,CLR,0.00,509.00,VWS V14.01,2013-11-13 17:28:00,
2013-11-13 12:30:00,31.6,8.3,30.05,NW,305,12.0,21.0,37,0.00,,-RA,0.00,176.00,VWS V14.01,2013-11-13 17:30:00,
2013-11-13 12:33:00,32.2,2.0,30.22,North,0,13.0,13.0,27,0.00,,CLR,0.00,507.00,VWS V14.01,2013-11-13 17:33:00,
2013-11-13 12:35:00,31.6,8.3,30.05,NNW,332,8.0,18.0,37,0.00,,-RA,0.00,190.00,VWS V14.01,2013-11-13 17:35:00,
2013-11-13 12:37:00,32.8,1.7,30.22,North,0,7.0,12.0,26,0.00,,CLR,0.00,503.00,VWS V14.01,2013-11-13 17:37:00,
2013-11-13 12:40:00,31.6,8.3,30.05,North,357,9.0,21.0,37,0.00,,-RA,0.00,172.00,VWS V14.01,2013-11-13 17:40:00,
2013-11-13 12:42:00,32.8,1.7,30.22,North,353,13.0,17.0,26,0.00,,CLR,0.00,498.00,VWS V14.01,2013-11-13 17:42:00,
2013-11-13 12:45:00,31.5,8.2,30.06,NNW,347,13.0,20.0,37,0.00,,-RA,0.00,187.00,VWS V14.01,2013-11-13 17:45:00,
2013-11-13 12:47:00,32.9,0.1,30.22,WNW,294,2.0,11.0,24,0.00,,CLR,0.00,493.00,VWS V14.01,2013-11-13 17:47:00,
2013-11-13 12:50:00,31.5,8.8,30.06,NNW,347,9.0,15.0,38,0.00,,-RA,0.00,176.00,VWS V14.01,2013-11-13 17:50:00,
2013-11-13 12:52:00,33.5,0.6,30.22,NNW,329,6.0,7.0,24,0.00,,CLR,0.00,489.00,VWS V14.01,2013-11-13 17:52:00,
2013-11-13 12:55:00,31.5,8.2,30.06,NNW,329,7.0,18.0,37,0.00,,-RA,0.00,179.00,VWS V14.01,2013-11-13 17:55:00,
2013-11-13 12:57:00,34.1,1.1,30.22,WNW,296,0.0,6.0,24,0.00,,CLR,0.00,484.00,VWS V14.01,2013-11-13 17:57:00,
2013-11-13 13:00:00,31.5,7.6,30.06,North,0,14.0,21.0,36,0.00,,-RA,0.00,167.00,VWS V14.01,2013-11-13 18:00:00,
2013-11-13 13:02:00,34.1,0.2,30.21,NW,306,2.0,8.0,23,0.00,,CLR,0.00,479.00,VWS V14.01,2013-11-13 18:02:00,
2013-11-13 13:05:00,31.3,6.8,30.06,WNW,295,5.0,16.0,35,0.00,,-RA,0.00,178.00,VWS V14.01,2013-11-13 18:05:00,
2013-11-13 13:07:00,33.7,-0.2,30.21,North,0,7.0,12.0,23,0.00,,CLR,0.00,472.00,VWS V14.01,2013-11-13 18:07:00,
2013-11-13 13:10:00,31.5,7.0,30.06,NNW,332,10.0,15.0,35,0.00,,-RA,0.00,204.00,VWS V14.01,2013-11-13 18:10:00,
2013-11-13 13:12:00,33.5,2.3,30.21,North,0,25.0,25.0,26,0.00,,CLR,0.00,466.00,VWS V14.01,2013-11-13 18:12:00,
2013-11-13 13:15:00,31.6,8.3,30.05,North,6,22.0,24.0,37,0.00,,-RA,0.00,211.00,VWS V14.01,2013-11-13 18:15:00,
2013-11-13 13:17:00,33.7,0.8,30.21,WNW,301,9.0,12.0,24,0.00,,CLR,0.00,457.00,VWS V14.01,2013-11-13 18:17:00,
2013-11-13 13:20:00,31.6,8.3,30.05,North,0,8.0,16.0,37,0.00,,-RA,0.00,199.00,VWS V14.01,2013-11-13 18:20:00,
2013-11-13 13:22:00,33.8,0.8,30.21,NW,323,6.0,13.0,24,0.00,,CLR,0.00,452.00,VWS V14.01,2013-11-13 18:22:00,
2013-11-13 13:25:00,31.6,7.1,30.05,NNW,344,13.0,20.0,35,0.00,,-RA,0.00,185.00,VWS V14.01,2013-11-13 18:25:00,
2013-11-13 13:27:00,34.1,2.0,30.21,North,349,5.0,11.0,25,0.00,,CLR,0.00,443.00,VWS V14.01,2013-11-13 18:27:00,
2013-11-13 13:30:00,31.8,9.7,30.06,NW,319,6.0,12.0,39,0.00,,-RA,0.00,165.00,VWS V14.01,2013-11-13 18:30:00,
2013-11-13 13:32:00,34.1,2.8,30.21,NNW,346,3.0,8.0,26,0.00,,CLR,0.00,436.00,VWS V14.01,2013-11-13 18:32:00,
2013-11-13 13:35:00,31.9,9.2,30.06,North,354,18.0,18.0,38,0.00,,-RA,0.00,164.00,VWS V14.01,2013-11-13 18:35:00,
2013-11-13 13:37:00,34.6,2.4,30.21,WNW,298,16.0,16.0,25,0.00,,CLR,0.00,429.00,VWS V14.01,2013-11-13 18:37:00,
2013-11-13 13:40:00,31.8,8.5,30.06,NW,315,8.0,14.0,37,0.00,,-RA,0.00,155.00,VWS V14.01,2013-11-13 18:40:00,
2013-11-13 13:42:00,34.9,1.8,30.21,WNW,285,5.0,13.0,24,0.00,,CLR,0.00,422.00,VWS V14.01,2013-11-13 18:42:00,
2013-11-13 13:45:00,31.9,9.2,30.07,NW,325,7.0,16.0,38,0.00,,-RA,0.00,155.00,VWS V14.01,2013-11-13 18:45:00,
2013-11-13 13:47:00,34.7,0.7,30.20,North,354,7.0,18.0,23,0.00,,CLR,0.00,413.00,VWS V14.01,2013-11-13 18:47:00,
2013-11-13 13:50:00,31.9,9.8,30.07,North,356,7.0,11.0,39,0.00,,-RA,0.00,158.00,VWS V14.01,2013-11-13 18:50:00,
2013-11-13 13:52:00,34.6,1.5,30.20,NW,309,8.0,8.0,24,0.00,,CLR,0.00,403.00,VWS V14.01,2013-11-13 18:52:00,
2013-11-13 13:55:00,32.1,9.4,30.07,NW,312,3.0,13.0,38,0.00,,-RA,0.00,148.00,VWS V14.01,2013-11-13 18:55:00,
2013-11-13 13:57:00,35.0,1.0,30.20,NW,304,7.0,11.0,23,0.00,,CLR,0.00,394.00,VWS V14.01,2013-11-13 18:57:00,
2013-11-13 14:00:00,32.2,9.5,30.07,West,268,7.0,10.0,38,0.00,,-RA,0.00,141.00,VWS V14.01,2013-11-13 19:00:00,
2013-11-13 14:02:00,34.7,1.6,30.20,NNW,329,5.0,11.0,24,0.00,,CLR,0.00,385.00,VWS V14.01,2013-11-13 19:02:00,
2013-11-13 14:05:00,32.2,9.5,30.07,North,7,11.0,12.0,38,0.00,,-RA,0.00,144.00,VWS V14.01,2013-11-13 19:05:00,
2013-11-13 14:07:00,34.6,1.5,30.20,North,359,7.0,13.0,24,0.00,,CLR,0.00,375.00,VWS V14.01,2013-11-13 19:07:00,
2013-11-13 14:10:00,32.2,9.5,30.07,NNW,336,3.0,9.0,38,0.00,,-RA,0.00,137.00,VWS V14.01,2013-11-13 19:10:00,
2013-11-13 14:12:00,34.4,1.4,30.20,North,7,13.0,13.0,24,0.00,,CLR,0.00,364.00,VWS V14.01,2013-11-13 19:12:00,
2013-11-13 14:15:00,32.1,8.8,30.07,WNW,292,3.0,14.0,37,0.00,,-RA,0.00,132.00,VWS V14.01,2013-11-13 19:15:00,
2013-11-13 14:17:00,34.4,3.1,30.20,NNW,328,2.0,7.0,26,0.00,,CLR,0.00,355.00,VWS V14.01,2013-11-13 19:17:00,
2013-11-13 14:20:00,32.2,9.5,30.07,NW,320,3.0,13.0,38,0.00,,-RA,0.00,130.00,VWS V14.01,2013-11-13 19:20:00,
2013-11-13 14:22:00,34.9,1.8,30.20,West,260,7.0,16.0,24,0.00,,CLR,0.00,343.00,VWS V14.01,2013-11-13 19:22:00,
2013-11-13 14:25:00,32.2,10.0,30.07,North,0,20.0,22.0,39,0.00,,-RA,0.00,125.00,VWS V14.01,2013-11-13 19:25:00,
2013-11-13 14:27:00,35.0,1.9,30.20,NNW,333,6.0,7.0,24,0.00,,CLR,0.00,333.00,VWS V14.01,2013-11-13 19:27:00,
2013-11-13 14:30:00,32.2,9.5,30.07,North,349,12.0,20.0,38,0.00,,-RA,0.00,116.00,VWS V14.01,2013-11-13 19:30:00,
2013-11-13 14:32:00,34.9,1.8,30.20,WNW,292,5.0,7.0,24,0.00,,CLR,0.00,320.00,VWS V14.01,2013-11-13 19:32:00,
2013-11-13 14:35:00,32.4,9.6,30.07,NNW,329,2.0,8.0,38,0.00,,-RA,0.00,118.00,VWS V14.01,2013-11-13 19:35:00,
2013-11-13 14:37:00,34.9,3.5,30.20,West,271,6.0,11.0,26,0.00,,CLR,0.00,313.00,VWS V14.01,2013-11-13 19:37:00,
2013-11-13 14:40:00,32.5,9.7,30.07,North,356,10.0,13.0,38,0.00,,-RA,0.00,114.00,VWS V14.01,2013-11-13 19:40:00,
2013-11-13 14:42:00,34.6,2.4,30.20,North,0,13.0,13.0,25,0.00,,CLR,0.00,299.00,VWS V14.01,2013-11-13 19:42:00,
2013-11-13 14:45:00,32.5,10.3,30.07,NNW,332,5.0,16.0,39,0.00,,-RA,0.00,130.00,VWS V14.01,2013-11-13 19:45:00,
2013-11-13 14:47:00,34.6,2.4,30.21,NW,305,3.0,7.0,25,0.00,,CLR,0.00,287.00,VWS V14.01,2013-11-13 19:47:00,
2013-11-13 14:50:00,32.4,9.6,30.07,NNW,344,9.0,14.0,38,0.00,,-RA,0.00,125.00,VWS V14.01,2013-11-13 19:50:00,
2013-11-13 14:52:00,34.7,2.5,30.21,NNW,339,4.0,7.0,25,0.00,,CLR,0.00,274.00,VWS V14.01,2013-11-13 19:52:00,
2013-11-13 14:55:00,32.5,10.3,30.07,NW,315,4.0,8.0,39,0.00,,-RA,0.00,107.00,VWS V14.01,2013-11-13 19:55:00,
2013-11-13 14:57:00,34.7,4.9,30.21,SSW,200,0.0,8.0,28,0.00,,CLR,0.00,262.00,VWS V14.01,2013-11-13 19:57:00,
2013-11-13 15:00:00,32.7,9.3,30.08,North,352,8.0,19.0,37,0.00,,-RA,0.00,100.00,VWS V14.01,2013-11-13 20:00:00,
2013-11-13 15:02:00,34.9,4.3,30.21,North,4,11.0,12.0,27,0.00,,CLR,0.00,252.00,VWS V14.01,2013-11-13 20:02:00,
2013-11-13 15:05:00,32.7,9.3,30.08,WNW,301,6.0,13.0,37,0.00,,-RA,0.00,97.00,VWS V14.01,2013-11-13 20:05:00,
2013-11-13 15:07:00,34.7,3.3,30.21,WSW,244,2.0,10.0,26,0.00,,CLR,0.00,238.00,VWS V14.01,2013-11-13 20:07:00,
2013-11-13 15:10:00,32.7,8.7,30.08,WNW,299,2.0,16.0,36,0.00,,-RA,0.00,99.00,VWS V14.01,2013-11-13 20:10:00,
2013-11-13 15:12:00,35.2,3.8,30.21,West,260,7.0,11.0,26,0.00,,CLR,0.00,225.00,VWS V14.01,2013-11-13 20:12:00,
2013-11-13 15:15:00,32.7,8.7,30.09,NNE,13,10.0,14.0,36,0.00,,-RA,0.00,95.00,VWS V14.01,2013-11-13 20:15:00,
2013-11-13 15:17:00,35.0,3.6,30.21,WSW,258,9.0,12.0,26,0.00,,CLR,0.00,211.00,VWS V14.01,2013-11-13 20:17:00,
2013-11-13 15:20:00,32.5,7.9,30.09,NNW,342,14.0,16.0,35,0.00,,-RA,0.00,84.00,VWS V14.01,2013-11-13 20:20:00,
2013-11-13 15:22:00,35.0,3.6,30.21,WNW,298,2.0,4.0,26,0.00,,CLR,0.00,199.00,VWS V14.01,2013-11-13 20:22:00,
2013-11-13 15:25:00,32.7,9.3,30.09,West,260,8.0,16.0,37,0.00,,-RA,0.00,76.00,VWS V14.01,2013-11-13 20:25:00,
2013-11-13 15:27:00,35.3,3.8,30.21,NW,309,1.0,6.0,26,0.00,,CLR,0.00,187.00,VWS V14.01,2013-11-13 20:27:00,
2013-11-13 15:30:00,32.5,8.5,30.09,NW,319,6.0,15.0,36,0.00,,-RA,0.00,76.00,VWS V14.01,2013-11-13 20:30:00,
2013-11-13 15:32:00,35.2,3.8,30.21,WNW,287,5.0,12.0,26,0.00,,CLR,0.00,172.00,VWS V14.01,2013-11-13 20:32:00,
2013-11-13 15:35:00,32.7,9.9,30.09,North,0,4.0,8.0,38,0.00,,-RA,0.00,72.00,VWS V14.01,2013-11-13 20:35:00,
2013-11-13 15:37:00,35.0,3.6,30.21,North,356,1.0,7.0,26,0.00,,CLR,0.00,158.00,VWS V14.01,2013-11-13 20:37:00,
2013-11-13 15:40:00,32.7,8.7,30.09,North,6,11.0,17.0,36,0.00,,-RA,0.00,69.00,VWS V14.01,2013-11-13 20:40:00,
2013-11-13 15:42:00,34.9,3.5,30.21,WNW,285,0.0,8.0,26,0.00,,CLR,0.00,146.00,VWS V14.01,2013-11-13 20:42:00,
2013-11-13 15:45:00,32.5,9.1,30.10,North,352,5.0,17.0,37,0.00,,-RA,0.00,63.00,VWS V14.01,2013-11-13 20:45:00,
2013-11-13 15:47:00,35.0,3.6,30.21,NW,320,7.0,10.0,26,0.00,,CLR,0.00,132.00,VWS V14.01,2013-11-13 20:47:00,
2013-11-13 15:50:00,32.5,7.9,30.10,NNW,339,11.0,15.0,35,0.00,,-RA,0.00,53.00,VWS V14.01,2013-11-13 20:50:00,
2013-11-13 15:52:00,34.9,4.3,30.21,NW,306,3.0,7.0,27,0.00,,CLR,0.00,120.00,VWS V14.01,2013-11-13 20:52:00,
2013-11-13 15:55:00,32.5,9.7,30.10,NNW,332,2.0,10.0,38,0.00,,-RA,0.00,49.00,VWS V14.01,2013-11-13 20:55:00,
2013-11-13 15:57:00,34.7,3.3,30.21,WNW,287,7.0,7.0,26,0.00,,CLR,0.00,74.00,VWS V14.01,2013-11-13 20:57:00,
2013-11-13 16:00:00,32.4,7.8,30.10,NNE,18,13.0,16.0,35,0.00,,-RA,0.00,42.00,VWS V14.01,2013-11-13 21:00:00,
2013-11-13 16:02:00,34.6,4.1,30.21,West,280,5.0,11.0,27,0.00,,CLR,0.00,72.00,VWS V14.01,2013-11-13 21:02:00,
2013-11-13 16:05:00,32.2,8.9,30.10,North,349,13.0,13.0,37,0.00,,-RA,0.00,30.00,VWS V14.01,2013-11-13 21:05:00,
2013-11-13 16:07:00,34.3,4.6,30.21,West,280,5.0,10.0,28,0.00,,CLR,0.00,28.00,VWS V14.01,2013-11-13 21:07:00,
2013-11-13 16:10:00,32.2,8.9,30.10,NW,326,3.0,12.0,37,0.00,,-RA,0.00,30.00,VWS V14.01,2013-11-13 21:10:00,
2013-11-13 16:12:00,34.0,4.3,30.21,SW,227,6.0,7.0,28,0.00,,CLR,0.00,30.00,VWS V14.01,2013-11-13 21:12:00,
2013-11-13 16:15:00,32.1,9.4,30.11,North,350,3.0,10.0,38,0.00,,-RA,0.00,25.00,VWS V14.01,2013-11-13 21:15:00,
2013-11-13 16:17:00,33.8,4.2,30.21,WNW,295,3.0,3.0,28,0.00,,CLR,0.00,19.00,VWS V14.01,2013-11-13 21:17:00,
2013-11-13 16:20:00,32.1,9.4,30.11,NNW,332,5.0,18.0,38,0.00,,-RA,0.00,21.00,VWS V14.01,2013-11-13 21:20:00,
2013-11-13 16:22:00,33.7,4.1,30.21,West,265,0.0,0.0,28,0.00,,CLR,0.00,11.00,VWS V14.01,2013-11-13 21:22:00,
2013-11-13 16:25:00,31.9,8.6,30.11,North,0,14.0,14.0,37,0.00,,-RA,0.00,14.00,VWS V14.01,2013-11-13 21:25:00,
2013-11-13 16:27:00,33.5,3.9,30.21,West,281,1.0,10.0,28,0.00,,CLR,0.00,9.00,VWS V14.01,2013-11-13 21:27:00,
2013-11-13 16:30:00,31.9,9.2,30.12,NW,312,3.0,12.0,38,0.00,,-RA,0.00,7.00,VWS V14.01,2013-11-13 21:30:00,
2013-11-13 16:32:00,33.4,4.6,30.21,WNW,285,0.0,3.0,29,0.00,,CLR,0.00,5.00,VWS V14.01,2013-11-13 21:32:00,
2013-11-13 16:35:00,31.8,8.5,30.12,NNW,329,5.0,8.0,37,0.00,,-RA,0.00,5.00,VWS V14.01,2013-11-13 21:35:00,
2013-11-13 16:37:00,33.2,4.4,30.21,WNW,284,0.0,11.0,29,0.00,,CLR,0.00,0.00,VWS V14.01,2013-11-13 21:37:00,
2013-11-13 16:40:00,31.6,8.9,30.12,North,3,17.0,17.0,38,0.00,,-RA,0.00,0.00,VWS V14.01,2013-11-13 21:40:00,
2013-11-13 16:42:00,33.1,5.1,30.21,WSW,256,2.0,6.0,30,0.00,,CLR,0.00,0.00,VWS V14.01,2013-11-13 21:42:00,
2013-11-13 16:45:00,31.6,9.5,30.13,WNW,291,2.0,7.0,39,0.00,,-RA,0.00,0.00,VWS V14.01,2013-11-13 21:45:00,
2013-11-13 16:47:00,32.9,4.9,30.21,West,275,0.0,6.0,30,0.00,,CLR,0.00,0.00,VWS V14.01,2013-11-13 21:47:00,
2013-11-13 16:50:00,31.3,9.2,30.13,NW,316,4.0,10.0,39,0.00,,-RA,0.00,0.00,VWS V14.01,2013-11-13 21:50:00,
2013-11-13 16:52:00,32.8,4.8,30.21,West,274,1.0,2.0,30,0.00,,CLR,0.00,0.00,VWS V14.01,2013-11-13 21:52:00,
2013-11-13 16:55:00,31.2,9.1,30.13,NW,306,8.0,10.0,39,0.00,,-RA,0.00,0.00,VWS V14.01,2013-11-13 21:55:00,
2013-11-13 16:57:00,32.8,5.5,30.21,West,274,0.0,3.0,31,0.00,,CLR,0.00,0.00,VWS V14.01,2013-11-13 21:57:00,
2013-11-13 17:00:00,31.0,8.4,30.13,NNW,339,13.0,13.0,38,0.00,,-RA,0.00,0.00,VWS V14.01,2013-11-13 22:00:00,
2013-11-13 17:02:00,32.7,5.4,30.22,West,274,0.0,0.0,31,0.00,,CLR,0.00,0.00,VWS V14.01,2013-11-13 22:02:00,
2013-11-13 17:05:00,30.9,8.3,30.13,NNW,335,5.0,13.0,38,0.00,,-RA,0.00,0.00,VWS V14.01,2013-11-13 22:05:00,
2013-11-13 17:07:00,32.4,5.8,30.22,West,274,0.0,0.0,32,0.00,,CLR,0.00,0.00,VWS V14.01,2013-11-13 22:07:00,
2013-11-13 17:10:00,30.9,8.3,30.13,NW,309,0.0,11.0,38,0.00,,-RA,0.00,0.00,VWS V14.01,2013-11-13 22:10:00,
2013-11-13 17:12:00,32.2,5.7,30.22,West,272,0.0,0.0,32,0.00,,CLR,0.00,0.00,VWS V14.01,2013-11-13 22:12:00,
2013-11-13 17:15:00,30.9,8.3,30.14,NW,323,4.0,10.0,38,0.00,,-RA,0.00,0.00,VWS V14.01,2013-11-13 22:15:00,
2013-11-13 17:17:00,31.9,6.1,30.22,West,274,0.0,0.0,33,0.00,,CLR,0.00,0.00,VWS V14.01,2013-11-13 22:17:00,
2013-11-13 17:20:00,30.7,8.1,30.14,NNW,346,5.0,13.0,38,0.00,,-RA,0.00,0.00,VWS V14.01,2013-11-13 22:20:00,
2013-11-13 17:22:00,31.8,6.0,30.22,West,274,0.0,0.0,33,0.00,,CLR,0.00,0.00,VWS V14.01,2013-11-13 22:22:00,
2013-11-13 17:25:00,30.7,8.1,30.14,NW,304,6.0,7.0,38,0.00,,-RA,0.00,0.00,VWS V14.01,2013-11-13 22:25:00,
2013-11-13 17:27:00,31.6,6.5,30.22,West,274,0.0,0.0,34,0.00,,CLR,0.00,0.00,VWS V14.01,2013-11-13 22:27:00,
2013-11-13 17:30:00,30.6,8.6,30.14,NNW,328,1.0,14.0,39,0.00,,-RA,0.00,0.00,VWS V14.01,2013-11-13 22:30:00,
2013-11-13 17:32:00,31.5,6.4,30.22,West,274,0.0,0.0,34,0.00,,CLR,0.00,0.00,VWS V14.01,2013-11-13 22:32:00,
2013-11-13 17:35:00,30.4,8.4,30.14,WNW,295,6.0,6.0,39,0.00,,-RA,0.00,0.00,VWS V14.01,2013-11-13 22:35:00,
2013-11-13 17:37:00,31.5,6.4,30.22,WSW,257,5.0,6.0,34,0.00,,CLR,0.00,0.00,VWS V14.01,2013-11-13 22:37:00,
2013-11-13 17:40:00,30.4,9.0,30.14,WNW,285,2.0,7.0,40,0.00,,-RA,0.00,0.00,VWS V14.01,2013-11-13 22:40:00,
2013-11-13 17:42:00,31.5,6.4,30.22,WSW,256,1.0,1.0,34,0.00,,CLR,0.00,0.00,VWS V14.01,2013-11-13 22:42:00,
2013-11-13 17:45:00,30.3,8.9,30.15,North,0,7.0,10.0,40,0.00,,-RA,0.00,0.00,VWS V14.01,2013-11-13 22:45:00,
2013-11-13 17:47:00,31.5,6.4,30.22,WSW,257,0.0,0.0,34,0.00,,CLR,0.00,0.00,VWS V14.01,2013-11-13 22:47:00,
2013-11-13 17:50:00,30.3,8.3,30.15,North,350,3.0,7.0,39,0.00,,-RA,0.00,0.00,VWS V14.01,2013-11-13 22:50:00,
2013-11-13 17:52:00,31.3,6.8,30.22,WSW,257,0.0,0.0,35,0.00,,CLR,0.00,0.00,VWS V14.01,2013-11-13 22:52:00,
2013-11-13 17:55:00,30.1,8.1,30.15,WNW,302,8.0,12.0,39,0.00,,-RA,0.00,0.00,VWS V14.01,2013-11-13 22:55:00,
2013-11-13 17:57:00,31.3,6.8,30.22,WSW,257,0.0,0.0,35,0.00,,CLR,0.00,0.00,VWS V14.01,2013-11-13 22:57:00,
2013-11-13 18:00:00,30.1,9.3,30.15,North,0,3.0,8.0,41,0.00,,-RA,0.00,0.00,VWS V14.01,2013-11-13 23:00:00,
2013-11-13 18:02:00,31.2,6.8,30.23,WSW,257,0.0,0.0,35,0.00,,CLR,0.00,0.00,VWS V14.01,2013-11-13 23:02:00,
2013-11-13 18:05:00,30.0,8.6,30.15,NNW,332,0.0,3.0,40,0.00,,-RA,0.00,0.00,VWS V14.01,2013-11-13 23:05:00,
2013-11-13 18:07:00,31.0,6.6,30.23,WSW,257,0.0,0.0,35,0.00,,CLR,0.00,0.00,VWS V14.01,2013-11-13 23:07:00,
2013-11-13 18:10:00,29.8,9.0,30.15,WNW,302,4.0,13.0,41,0.00,,-RA,0.00,0.00,VWS V14.01,2013-11-13 23:10:00,
2013-11-13 18:12:00,30.9,6.5,30.23,WSW,256,0.0,0.0,35,0.00,,CLR,0.00,0.00,VWS V14.01,2013-11-13 23:12:00,
2013-11-13 18:15:00,29.5,8.2,30.15,WNW,296,8.0,12.0,40,0.00,,-RA,0.00,0.00,VWS V14.01,2013-11-13 23:15:00,
2013-11-13 18:17:00,30.7,6.9,30.22,WSW,257,0.0,0.0,36,0.00,,CLR,0.00,0.00,VWS V14.01,2013-11-13 23:17:00,
2013-11-13 18:20:00,29.5,8.7,30.15,NW,305,1.0,10.0,41,0.00,,-RA,0.00,0.00,VWS V14.01,2013-11-13 23:20:00,
2013-11-13 18:22:00,30.6,6.8,30.22,WSW,257,0.0,0.0,36,0.00,,CLR,0.00,0.00,VWS V14.01,2013-11-13 23:22:00,
2013-11-13 18:25:00,29.5,9.2,30.15,NW,322,3.0,8.0,42,0.00,,-RA,0.00,0.00,VWS V14.01,2013-11-13 23:25:00,
2013-11-13 18:27:00,30.3,7.2,30.22,WSW,256,0.0,0.0,37,0.00,,CLR,0.00,0.00,VWS V14.01,2013-11-13 23:27:00,
2013-11-13 18:30:00,29.4,9.2,30.16,WSW,258,0.0,1.0,42,0.00,,-RA,0.00,0.00,VWS V14.01,2013-11-13 23:30:00,
2013-11-13 18:32:00,30.3,7.2,30.22,WSW,257,0.0,0.0,37,0.00,,CLR,0.00,0.00,VWS V14.01,2013-11-13 23:32:00,
2013-11-13 18:35:00,29.3,9.1,30.16,NW,323,2.0,8.0,42,0.00,,-RA,0.00,0.00,VWS V14.01,2013-11-13 23:35:00,
2013-11-13 18:37:00,30.4,6.7,30.22,WSW,256,0.0,0.0,36,0.00,,CLR,0.00,0.00,VWS V14.01,2013-11-13 23:37:00,
2013-11-13 18:40:00,29.3,9.1,30.16,NW,322,5.0,9.0,42,0.00,,-RA,0.00,0.00,VWS V14.01,2013-11-13 23:40:00,
2013-11-13 18:42:00,30.1,7.6,30.22,WSW,257,0.0,0.0,38,0.00,,CLR,0.00,0.00,VWS V14.01,2013-11-13 23:42:00,
2013-11-13 18:45:00,29.3,9.1,30.17,NW,318,5.0,11.0,42,0.00,,-RA,0.00,0.00,VWS V14.01,2013-11-13 23:45:00,
2013-11-13 18:47:00,29.7,7.8,30.22,WSW,257,0.0,0.0,39,0.00,,CLR,0.00,0.00,VWS V14.01,2013-11-13 23:47:00,
2013-11-13 18:50:00,29.1,8.9,30.17,North,349,5.0,12.0,42,0.00,,-RA,0.00,0.00,VWS V14.01,2013-11-13 23:50:00,
2013-11-13 18:52:00,29.5,8.7,30.22,WSW,257,0.0,0.0,41,0.00,,CLR,0.00,0.00,VWS V14.01,2013-11-13 23:52:00,
2013-11-13 18:55:00,29.0,8.8,30.17,North,352,7.0,7.0,42,0.00,,-RA,0.00,0.00,VWS V14.01,2013-11-13 23:55:00,
2013-11-13 18:57:00,29.3,8.5,30.22,WSW,256,0.0,0.0,41,0.00,,CLR,0.00,0.00,VWS V14.01,2013-11-13 23:57:00,
2013-11-13 19:00:00,29.0,8.8,30.16,NW,322,4.0,6.0,42,0.00,,-RA,0.00,0.00,VWS V14.01,2013-11-14 00:00:00,
2013-11-13 19:02:00,29.1,8.9,30.22,WSW,257,0.0,0.0,42,0.00,,CLR,0.00,0.00,VWS V14.01,2013-11-14 00:02:00,
2013-11-13 19:05:00,29.0,8.8,30.16,NW,318,3.0,6.0,42,0.00,,-RA,0.00,0.00,VWS V14.01,2013-11-14 00:05:00,
2013-11-13 19:07:00,28.8,8.6,30.22,WSW,254,0.0,0.0,42,0.00,,CLR,0.00,0.00,VWS V14.01,2013-11-14 00:07:00,
2013-11-13 19:10:00,28.8,9.1,30.16,North,352,10.0,10.0,43,0.00,,-RA,0.00,0.00,VWS V14.01,2013-11-14 00:10:00,
2013-11-13 19:12:00,28.7,8.5,30.22,WSW,254,0.0,0.0,42,0.00,,CLR,0.00,0.00,VWS V14.01,2013-11-14 00:12:00,
2013-11-13 19:15:00,29.0,9.3,30.16,North,0,11.0,11.0,43,0.00,,-RA,0.00,0.00,VWS V14.01,2013-11-14 00:15:00,
2013-11-13 19:17:00,28.4,8.8,30.22,WSW,254,0.0,0.0,43,0.00,,CLR,0.00,0.00,VWS V14.01,2013-11-14 00:17:00,
2013-11-13 19:20:00,28.8,8.6,30.16,North,0,8.0,11.0,42,0.00,,-RA,0.00,0.00,VWS V14.01,2013-11-14 00:20:00,
2013-11-13 19:22:00,28.1,9.0,30.22,WSW,256,0.0,0.0,44,0.00,,CLR,0.00,0.00,VWS V14.01,2013-11-14 00:22:00,
2013-11-13 19:25:00,28.8,9.1,30.16,NNW,339,11.0,12.0,43,0.00,,-RA,0.00,0.00,VWS V14.01,2013-11-14 00:25:00,
2013-11-13 19:27:00,27.9,9.3,30.22,WSW,254,0.0,0.0,45,0.00,,CLR,0.00,0.00,VWS V14.01,2013-11-14 00:27:00,
2013-11-13 19:30:00,28.8,8.1,30.16,NNW,343,7.0,9.0,41,0.00,,-RA,0.00,0.00,VWS V14.01,2013-11-14 00:30:00,
2013-11-13 19:32:00,27.8,9.7,30.22,WSW,254,0.0,0.0,46,0.00,,CLR,0.00,0.00,VWS V14.01,2013-11-14 00:32:00,
2013-11-13 19:35:00,28.7,8.0,30.16,NW,326,2.0,11.0,41,0.00,,-RA,0.00,0.00,VWS V14.01,2013-11-14 00:35:00,
2013-11-13 19:37:00,27.6,10.0,30.22,WSW,256,0.0,0.0,47,0.00,,CLR,0.00,0.00,VWS V14.01,2013-11-14 00:37:00,
2013-11-13 19:40:00,28.7,8.0,30.16,NNW,335,1.0,8.0,41,0.00,,-RA,0.00,0.00,VWS V14.01,2013-11-14 00:40:00,
2013-11-13 19:42:00,27.5,10.4,30.22,WSW,254,0.0,0.0,48,0.00,,CLR,0.00,0.00,VWS V14.01,2013-11-14 00:42:00,
2013-11-13 19:45:00,28.5,8.3,30.17,NW,311,3.0,3.0,42,0.00,,-RA,0.00,0.00,VWS V14.01,2013-11-14 00:45:00,
2013-11-13 19:47:00,27.3,10.2,30.22,WSW,254,0.0,0.0,48,0.00,,CLR,0.00,0.00,VWS V14.01,2013-11-14 00:47:00,
2013-11-13 19:50:00,28.4,8.2,30.17,NNW,339,3.0,7.0,42,0.00,,-RA,0.00,0.00,VWS V14.01,2013-11-14 00:50:00,
2013-11-13 19:52:00,27.2,10.1,30.22,WSW,256,0.0,0.0,48,0.00,,CLR,0.00,0.00,VWS V14.01,2013-11-14 00:52:00,
2013-11-13 19:55:00,28.2,8.1,30.17,NW,304,2.0,11.0,42,0.00,,-RA,0.00,0.00,VWS V14.01,2013-11-14 00:55:00,
2013-11-13 19:57:00,27.2,9.6,30.22,WSW,256,0.0,2.0,47,0.00,,CLR,0.00,0.00,VWS V14.01,2013-11-14 00:57:00,
2013-11-13 20:00:00,28.2,8.6,30.17,NW,319,0.0,7.0,43,0.00,,-RA,0.00,0.00,VWS V14.01,2013-11-14 01:00:00,
2013-11-13 20:02:00,27.2,9.6,30.21,WSW,256,0.0,1.0,47,0.00,,CLR,0.00,0.00,VWS V14.01,2013-11-14 01:02:00,
2013-11-13 20:05:00,28.1,8.0,30.17,NW,305,3.0,8.0,42,0.00,,-RA,0.00,0.00,VWS V14.01,2013-11-14 01:05:00,
2013-11-13 20:07:00,27.0,9.5,30.21,WSW,254,2.0,3.0,47,0.00,,CLR,0.00,0.00,VWS V14.01,2013-11-14 01:07:00,
2013-11-13 20:10:00,28.2,8.1,30.17,NW,309,3.0,10.0,42,0.00,,-RA,0.00,0.00,VWS V14.01,2013-11-14 01:10:00,
2013-11-13 20:12:00,26.9,9.9,30.21,WSW,254,1.0,3.0,48,0.00,,CLR,0.00,0.00,VWS V14.01,2013-11-14 01:12:00,
2013-11-13 20:15:00,28.2,8.1,30.17,NNW,339,1.0,3.0,42,0.00,,-RA,0.00,0.00,VWS V14.01,2013-11-14 01:15:00,
2013-11-13 20:17:00,27.0,9.9,30.21,WSW,253,2.0,3.0,48,0.00,,CLR,0.00,0.00,VWS V14.01,2013-11-14 01:17:00,
2013-11-13 20:20:00,28.4,8.2,30.17,NW,319,5.0,16.0,42,0.00,,-RA,0.00,0.00,VWS V14.01,2013-11-14 01:20:00,
2013-11-13 20:22:00,26.9,9.4,30.21,WSW,253,0.0,3.0,47,0.00,,CLR,0.00,0.00,VWS V14.01,2013-11-14 01:22:00,
2013-11-13 20:25:00,28.4,8.2,30.17,NNW,329,5.0,11.0,42,0.00,,-RA,0.00,0.00,VWS V14.01,2013-11-14 01:25:00,
2013-11-13 20:27:00,26.9,8.9,30.21,WSW,253,1.0,3.0,46,0.00,,CLR,0.00,0.00,VWS V14.01,2013-11-14 01:27:00,
2013-11-13 20:30:00,28.2,8.1,30.17,NW,313,6.0,10.0,42,0.00,,-RA,0.00,0.00,VWS V14.01,2013-11-14 01:30:00,
2013-11-13 20:32:00,26.9,8.9,30.21,WSW,253,0.0,0.0,46,0.00,,CLR,0.00,0.00,VWS V14.01,2013-11-14 01:32:00,
2013-11-13 20:35:00,28.2,9.1,30.17,NNW,339,2.0,9.0,44,0.00,,-RA,0.00,0.00,VWS V14.01,2013-11-14 01:35:00,
2013-11-13 20:37:00,26.7,8.7,30.21,WSW,253,0.0,2.0,46,0.00,,CLR,0.00,0.00,VWS V14.01,2013-11-14 01:37:00,
2013-11-13 20:40:00,28.1,8.5,30.17,NW,323,4.0,7.0,43,0.00,,-RA,0.00,0.00,VWS V14.01,2013-11-14 01:40:00,
2013-11-13 20:42:00,26.6,8.6,30.21,WSW,253,0.0,0.0,46,0.00,,CLR,0.00,0.00,VWS V14.01,2013-11-14 01:42:00,
2013-11-13 20:45:00,28.1,9.0,30.18,NNW,339,2.0,7.0,44,0.00,,-RA,0.00,0.00,VWS V14.01,2013-11-14 01:45:00,
2013-11-13 20:47:00,26.6,8.6,30.21,WSW,253,0.0,3.0,46,0.00,,CLR,0.00,0.00,VWS V14.01,2013-11-14 01:47:00,
2013-11-13 20:50:00,27.9,9.3,30.18,NNW,332,7.0,11.0,45,0.00,,-RA,0.00,0.00,VWS V14.01,2013-11-14 01:50:00,
2013-11-13 20:52:00,26.4,9.8,30.21,WSW,253,0.0,2.0,49,0.00,,CLR,0.00,0.00,VWS V14.01,2013-11-14 01:52:00,
2013-11-13 20:55:00,27.8,8.7,30.18,NW,315,3.0,7.0,44,0.00,,-RA,0.00,0.00,VWS V14.01,2013-11-14 01:55:00,
2013-11-13 20:57:00,26.3,10.2,30.21,WSW,253,0.0,0.0,50,0.00,,CLR,0.00,0.00,VWS V14.01,2013-11-14 01:57:00,
2013-11-13 21:02:00,26.1,10.0,30.21,WSW,253,0.0,0.0,50,0.00,,CLR,0.00,0.00,VWS V14.01,2013-11-14 02:02:00,
2013-11-13 21:05:00,27.5,8.5,30.17,NW,319,5.0,5.0,44,0.00,,-RA,0.00,0.00,VWS V14.01,2013-11-14 02:05:00,
2013-11-13 21:07:00,26.0,9.9,30.21,WSW,253,0.0,0.0,50,0.00,,CLR,0.00,0.00,VWS V14.01,2013-11-14 02:07:00,
2013-11-13 21:10:00,27.5,9.0,30.17,NW,309,0.0,4.0,45,0.00,,-RA,0.00,0.00,VWS V14.01,2013-11-14 02:10:00,
2013-11-13 21:12:00,26.3,10.2,30.21,WSW,253,0.0,0.0,50,0.00,,CLR,0.00,0.00,VWS V14.01,2013-11-14 02:12:00,
2013-11-13 21:15:00,27.5,9.0,30.18,NW,309,3.0,3.0,45,0.00,,-RA,0.00,0.00,VWS V14.01,2013-11-14 02:15:00,
2013-11-13 21:17:00,26.3,10.2,30.21,WSW,253,0.0,0.0,50,0.00,,CLR,0.00,0.00,VWS V14.01,2013-11-14 02:17:00,
2013-11-13 21:20:00,27.3,8.8,30.18,North,0,6.0,7.0,45,0.00,,-RA,0.00,0.00,VWS V14.01,2013-11-14 02:20:00,
2013-11-13 21:22:00,26.1,9.6,30.21,WSW,254,0.0,2.0,49,0.00,,CLR,0.00,0.00,VWS V14.01,2013-11-14 02:22:00,
2013-11-13 21:25:00,27.5,9.0,30.18,North,356,2.0,3.0,45,0.00,,-RA,0.00,0.00,VWS V14.01,2013-11-14 02:25:00,
2013-11-13 21:27:00,26.3,9.8,30.21,WSW,253,0.0,0.0,49,0.00,,CLR,0.00,0.00,VWS V14.01,2013-11-14 02:27:00,
2013-11-13 21:30:00,27.2,8.7,30.18,NW,318,5.0,5.0,45,0.00,,-RA,0.00,0.00,VWS V14.01,2013-11-14 02:30:00,
2013-11-13 21:32:00,26.1,9.6,30.21,WSW,253,0.0,0.0,49,0.00,,CLR,0.00,0.00,VWS V14.01,2013-11-14 02:32:00,
2013-11-13 21:35:00,27.2,8.7,30.18,WNW,294,2.0,8.0,45,0.00,,-RA,0.00,0.00,VWS V14.01,2013-11-14 02:35:00,
2013-11-13 21:37:00,26.3,9.8,30.21,WSW,253,2.0,3.0,49,0.00,,CLR,0.00,0.00,VWS V14.01,2013-11-14 02:37:00,
2013-11-13 21:40:00,27.2,9.2,30.18,WNW,299,1.0,7.0,46,0.00,,-RA,0.00,0.00,VWS V14.01,2013-11-14 02:40:00,
2013-11-13 21:42:00,26.6,10.0,30.21,WSW,251,1.0,4.0,49,0.00,,CLR,0.00,0.00,VWS V14.01,2013-11-14 02:42:00,
2013-11-13 21:45:00,27.0,9.0,30.18,NW,315,5.0,7.0,46,0.00,,-RA,0.00,0.00,VWS V14.01,2013-11-14 02:45:00,
2013-11-13 21:47:00,26.7,9.7,30.20,WSW,251,1.0,3.0,48,0.00,,CLR,0.00,0.00,VWS V14.01,2013-11-14 02:47:00,
2013-11-13 21:50:00,27.0,9.0,30.18,North,357,2.0,7.0,46,0.00,,-RA,0.00,0.00,VWS V14.01,2013-11-14 02:50:00,
2013-11-13 21:52:00,26.9,9.9,30.20,WSW,251,0.0,3.0,48,0.00,,CLR,0.00,0.00,VWS V14.01,2013-11-14 02:52:00,
2013-11-13 21:55:00,26.9,8.9,30.18,NW,308,5.0,6.0,46,0.00,,-RA,0.00,0.00,VWS V14.01,2013-11-14 02:55:00,
2013-11-13 21:57:00,26.9,10.3,30.20,WSW,251,2.0,2.0,49,0.00,,CLR,0.00,0.00,VWS V14.01,2013-11-14 02:57:00,
2013-11-13 22:00:00,26.9,8.9,30.18,NNW,332,3.0,8.0,46,0.00,,-RA,0.00,0.00,VWS V14.01,2013-11-14 03:00:00,
2013-11-13 22:02:00,26.9,10.3,30.19,WSW,251,0.0,1.0,49,0.00,,CLR,0.00,0.00,VWS V14.01,2013-11-14 03:02:00,
2013-11-13 22:05:00,26.7,9.2,30.18,NW,309,2.0,6.0,47,0.00,,-RA,0.00,0.00,VWS V14.01,2013-11-14 03:05:00,
2013-11-13 22:07:00,26.7,10.6,30.19,WSW,251,0.0,2.0,50,0.00,,CLR,0.00,0.00,VWS V14.01,2013-11-14 03:07:00,
2013-11-13 22:10:00,26.7,9.2,30.18,NW,315,1.0,3.0,47,0.00,,-RA,0.00,0.00,VWS V14.01,2013-11-14 03:10:00,
2013-11-13 22:12:00,26.7,10.6,30.19,WSW,251,0.0,0.0,50,0.00,,CLR,0.00,0.00,VWS V14.01,2013-11-14 03:12:00,
2013-11-13 22:15:00,26.9,9.9,30.18,North,356,3.0,5.0,48,0.00,,-RA,0.00,0.00,VWS V14.01,2013-11-14 03:15:00,
2013-11-13 22:17:00,26.9,10.8,30.19,WSW,251,0.0,2.0,50,0.00,,CLR,0.00,0.00,VWS V14.01,2013-11-14 03:17:00,
2013-11-13 22:20:00,26.9,9.4,30.18,NW,308,6.0,7.0,47,0.00,,-RA,0.00,0.00,VWS V14.01,2013-11-14 03:20:00,
2013-11-13 22:22:00,26.9,10.8,30.19,WSW,251,0.0,0.0,50,0.00,,CLR,0.00,0.00,VWS V14.01,2013-11-14 03:22:00,
2013-11-13 22:25:00,26.7,9.2,30.18,NNW,328,2.0,9.0,47,0.00,,-RA,0.00,0.00,VWS V14.01,2013-11-14 03:25:00,
2013-11-13 22:27:00,26.9,11.2,30.19,WSW,251,0.0,0.0,51,0.00,,CLR,0.00,0.00,VWS V14.01,2013-11-14 03:27:00,
2013-11-13 22:30:00,26.7,9.7,30.17,NW,325,7.0,11.0,48,0.00,,-RA,0.00,0.00,VWS V14.01,2013-11-14 03:30:00,
2013-11-13 22:32:00,26.7,11.0,30.18,WSW,251,0.0,0.0,51,0.00,,CLR,0.00,0.00,VWS V14.01,2013-11-14 03:32:00,
2013-11-13 22:35:00,26.7,9.7,30.17,WNW,294,1.0,6.0,48,0.00,,-RA,0.00,0.00,VWS V14.01,2013-11-14 03:35:00,
2013-11-13 22:37:00,26.7,11.4,30.18,WSW,251,0.0,2.0,52,0.00,,CLR,0.00,0.00,VWS V14.01,2013-11-14 03:37:00,
2013-11-13 22:40:00,26.6,10.0,30.17,NW,315,3.0,6.0,49,0.00,,-RA,0.00,0.00,VWS V14.01,2013-11-14 03:40:00,
2013-11-13 22:42:00,26.7,11.9,30.18,WSW,251,2.0,3.0,53,0.00,,CLR,0.00,0.00,VWS V14.01,2013-11-14 03:42:00,
2013-11-13 22:45:00,26.6,10.0,30.18,NW,311,0.0,3.0,49,0.00,,-RA,0.00,0.00,VWS V14.01,2013-11-14 03:45:00,
2013-11-13 22:47:00,27.0,11.7,30.18,WSW,251,2.0,4.0,52,0.00,,CLR,0.00,0.00,VWS V14.01,2013-11-14 03:47:00,
2013-11-13 22:50:00,26.6,10.0,30.18,NW,312,0.0,6.0,49,0.00,,-RA,0.00,0.00,VWS V14.01,2013-11-14 03:50:00,
2013-11-13 22:52:00,27.2,11.5,30.18,WSW,251,3.0,3.0,51,0.00,,CLR,0.00,0.00,VWS V14.01,2013-11-14 03:52:00,
2013-11-13 22:55:00,26.6,10.0,30.18,WNW,299,0.0,3.0,49,0.00,,-RA,0.00,0.00,VWS V14.01,2013-11-14 03:55:00,
2013-11-13 22:57:00,27.3,11.6,30.18,SW,230,3.0,6.0,51,0.00,,CLR,0.00,0.00,VWS V14.01,2013-11-14 03:57:00,
2013-11-13 23:00:00,26.4,9.8,30.18,NNW,328,3.0,6.0,49,0.00,,-RA,0.00,0.00,VWS V14.01,2013-11-14 04:00:00,
2013-11-13 23:02:00,27.5,11.8,30.17,SW,227,4.0,6.0,51,0.00,,CLR,0.00,0.00,VWS V14.01,2013-11-14 04:02:00,
2013-11-13 23:05:00,26.4,10.3,30.18,NW,315,0.0,4.0,50,0.00,,-RA,0.00,0.00,VWS V14.01,2013-11-14 04:05:00,
2013-11-13 23:07:00,27.6,11.9,30.17,SW,226,2.0,5.0,51,0.00,,CLR,0.00,0.00,VWS V14.01,2013-11-14 04:07:00,
2013-11-13 23:10:00,26.4,10.3,30.18,West,268,3.0,3.0,50,0.00,,-RA,0.00,0.00,VWS V14.01,2013-11-14 04:10:00,
2013-11-13 23:12:00,27.6,11.9,30.17,SW,215,2.0,3.0,51,0.00,,CLR,0.00,0.00,VWS V14.01,2013-11-14 04:12:00,
2013-11-13 23:15:00,26.4,10.3,30.18,West,268,0.0,2.0,50,0.00,,-RA,0.00,0.00,VWS V14.01,2013-11-14 04:15:00,
2013-11-13 23:17:00,27.8,12.0,30.17,SW,224,2.0,3.0,51,0.00,,CLR,0.00,0.00,VWS V14.01,2013-11-14 04:17:00,
2013-11-13 23:20:00,26.4,10.3,30.18,West,272,0.0,0.0,50,0.00,,-RA,0.00,0.00,VWS V14.01,2013-11-14 04:20:00,
2013-11-13 23:22:00,27.9,11.7,30.17,SW,224,2.0,5.0,50,0.00,,CLR,0.00,0.00,VWS V14.01,2013-11-14 04:22:00,
2013-11-13 23:25:00,26.3,10.2,30.18,NW,311,0.0,2.0,50,0.00,,-RA,0.00,0.00,VWS V14.01,2013-11-14 04:25:00,
2013-11-13 23:27:00,27.9,11.7,30.17,SW,223,3.0,5.0,50,0.00,,CLR,0.00,0.00,VWS V14.01,2013-11-14 04:27:00,
2013-11-13 23:30:00,26.3,10.2,30.18,NW,322,0.0,0.0,50,0.00,,-RA,0.00,0.00,VWS V14.01,2013-11-14 04:30:00,
2013-11-13 23:32:00,28.1,11.9,30.17,SW,223,0.0,0.0,50,0.00,,CLR,0.00,0.00,VWS V14.01,2013-11-14 04:32:00,
2013-11-13 23:35:00,26.1,10.0,30.18,NW,306,0.0,3.0,50,0.00,,-RA,0.00,0.00,VWS V14.01,2013-11-14 04:35:00,
2013-11-13 23:37:00,28.2,12.0,30.17,SW,223,0.0,3.0,50,0.00,,CLR,0.00,0.00,VWS V14.01,2013-11-14 04:37:00,
2013-11-13 23:40:00,26.1,10.0,30.18,WNW,302,0.0,2.0,50,0.00,,-RA,0.00,0.00,VWS V14.01,2013-11-14 04:40:00,
2013-11-13 23:42:00,28.4,12.1,30.17,SW,223,0.0,3.0,50,0.00,,CLR,0.00,0.00,VWS V14.01,2013-11-14 04:42:00,
2013-11-13 23:45:00,26.0,9.9,30.18,WNW,302,0.0,0.0,50,0.00,,-RA,0.00,0.00,VWS V14.01,2013-11-14 04:45:00,
2013-11-13 23:47:00,28.4,12.1,30.16,SW,223,2.0,3.0,50,0.00,,CLR,0.00,0.00,VWS V14.01,2013-11-14 04:47:00,
2013-11-13 23:50:00,26.0,9.9,30.18,WNW,302,0.0,0.0,50,0.00,,-RA,0.00,0.00,VWS V14.01,2013-11-14 04:50:00,
2013-11-13 23:52:00,28.4,12.1,30.16,SW,223,2.0,3.0,50,0.00,,CLR,0.00,0.00,VWS V14.01,2013-11-14 04:52:00,
2013-11-13 23:55:00,25.8,10.2,30.18,WNW,302,0.0,0.0,51,0.00,,-RA,0.00,0.00,VWS V14.01,2013-11-14 04:55:00,
2013-11-13 23:57:00,28.4,11.7,30.16,SW,223,0.0,0.0,49,0.00,,CLR,0.00,0.00,VWS V14.01,2013-11-14 04:57:00,